Clines Corner, NM

1:12 AM MDT on March 23, 2017 (GMT -0600)
Clines Corner

Weather History for KCQC - November, 2013

Change the Weather History Date:

Monday, November 4, 2013

  Actual Average (KSAF) Record (KSAF)
Temperature  
Mean Temperature 45 °F -  
Max Temperature 57 °F 64 °F 74 °F (1977)
Min Temperature 33 °F 31 °F 26 °F (2003)
Degree Days  
Heating Degree Days 20    
Moisture  
Dew Point 31 °F    
Average Humidity 62    
Maximum Humidity 82    
Minimum Humidity 37    
Precipitation  
Precipitation 0.01 in - - ()
Sea Level Pressure  
Sea Level Pressure 29.84 in    
Wind  
Wind Speed 13 mph (SW)    
Max Wind Speed 20 mph    
Max Gust Speed 26 mph    
Visibility 10 miles    
Events Rain    
Averages and records for this station are not official NWS values.
T = Trace of Precipitation, MM = Missing Value Source: NWS Daily Summary

Daily Weather History Graph

Daily Weather History Graph

Search for Another Location

Airport or City:

Trip Planner

Search our weather history database for the weather conditions in past years. The results will help you decide how hot, cold, wet, or windy it might be!

Date:

Astronomy

Nov. 04, 2013 Rise Set
Actual Time 6:26 AM MST 5:05 PM MST
Civil Twilight 6:00 AM MST 5:31 PM MST
Nautical Twilight 5:30 AM MST 6:01 PM MST
Astronomical Twilight 5:00 AM MST 6:31 PM MST
Moon 7:37 AM MST (11/4) 6:15 PM MST (11/4)
Length of Visible Light 11h 31m
Length of Day
10h 38m
New Moon, 2% of the Moon is Illuminated
Nov 4
New Moon
Nov 9
First Quarter
Nov 17
Full
Nov 25
Last Quarter
Dec 2
New

Hourly Weather History & Observations

Time (MST) Temp. Windchill Dew Point Humidity Pressure Visibility Wind Dir Wind Speed Gust Speed Precip Events Conditions
12:53 AM 43.0 °F 34.8 °F 30.0 °F 60% 29.74 in 10.0 mi West 18.4 mph - N/A   Clear
1:53 AM 41.0 °F 33.1 °F 30.0 °F 65% 29.75 in 10.0 mi West 15.0 mph - N/A   Clear
2:53 AM 39.0 °F 30.3 °F 30.0 °F 70% 29.75 in 10.0 mi West 16.1 mph - N/A   Clear
3:53 AM 37.0 °F 28.5 °F 28.9 °F 73% 29.78 in 10.0 mi West 13.8 mph - N/A   Clear
4:53 AM 35.1 °F 26.4 °F 28.9 °F 78% 29.81 in 10.0 mi WNW 12.7 mph - N/A   Clear
5:53 AM 33.1 °F 24.4 °F 28.0 °F 82% 29.85 in 10.0 mi West 11.5 mph - N/A   Clear
6:53 AM 33.1 °F 25.5 °F 28.0 °F 82% 29.88 in 10.0 mi WNW 9.2 mph - N/A   Clear
7:53 AM 43.0 °F 37.7 °F 32.0 °F 65% 29.86 in 10.0 mi WNW 9.2 mph - N/A   Clear
8:53 AM 48.9 °F - 32.0 °F 52% 29.86 in 10.0 mi West 11.5 mph - N/A   Clear
9:53 AM 52.0 °F - 30.0 °F 43% 29.86 in 10.0 mi WNW 6.9 mph - N/A   Clear
10:53 AM 55.0 °F - 28.9 °F 37% 29.84 in 10.0 mi WSW 9.2 mph - N/A   Clear
11:53 AM 55.9 °F - 30.0 °F 37% 29.83 in 10.0 mi SW 11.5 mph 20.7 mph N/A   Scattered Clouds
12:53 PM 57.0 °F - 30.9 °F 37% 29.80 in 10.0 mi SW 13.8 mph 21.9 mph N/A   Partly Cloudy
1:53 PM 57.0 °F - 32.0 °F 39% 29.78 in 10.0 mi South 19.6 mph 25.3 mph N/A   Overcast
2:53 PM 55.9 °F - 33.1 °F 42% 29.79 in 10.0 mi South 15.0 mph 25.3 mph N/A   Mostly Cloudy
3:53 PM 57.0 °F - 33.1 °F 40% 29.81 in 10.0 mi SSW 17.3 mph - N/A   Mostly Cloudy
4:18 PM 50.0 °F - 32.0 °F 50% 29.96 in 10.0 mi SE 16.1 mph 26.5 mph N/A   Overcast
4:53 PM 46.9 °F - 35.1 °F 63% 29.88 in 10.0 mi SE 9.2 mph - 0.00 in Rain Light Rain
5:53 PM 43.0 °F 37.2 °F 35.1 °F 74% 29.92 in 10.0 mi East 10.4 mph - 0.00 in   Mostly Cloudy
6:53 PM 42.1 °F 35.7 °F 33.1 °F 70% 29.92 in 10.0 mi ESE 11.5 mph - 0.00 in   Mostly Cloudy
7:53 PM 39.0 °F 31.4 °F 30.9 °F 73% 29.89 in 10.0 mi East 12.7 mph - N/A   Clear
8:53 PM 36.0 °F 28.5 °F 30.0 °F 79% 29.87 in 10.0 mi ESE 10.4 mph - N/A   Scattered Clouds
9:53 PM 37.0 °F 30.4 °F 28.9 °F 73% 29.84 in 10.0 mi East 9.2 mph - N/A   Clear
10:53 PM 36.0 °F 29.0 °F 28.9 °F 76% 29.81 in 10.0 mi East 9.2 mph - N/A   Partly Cloudy
11:53 PM 37.0 °F 32.4 °F 32.0 °F 82% 29.82 in 7.0 mi SE 5.8 mph - 0.01 in Rain Light Rain